This demonstration page uses our WeatherBlox Daily Observations layout. Learn more.

Left ArrowRight Arrow

Hourly Observations for June 25, 2022

Temp ( °F °C ) Dew Point ( °F °C ) Humidity (%) Winds ( mph kmh ) Pressure ( in mb ) Visibility ( mi km ) Precip ( " mm )
12:59 am 00:59 Clear 66 18.9 62 16.7 87 87 SSE 3 6 30.12 1020 10 16 0.00 0.00
1:59 am 01:59 Clear 66 18.9 62 16.7 87 87 SSE 3 6 30.12 1020 10 16 0.00 0.00
2:59 am 02:59 Clear 65 18.3 62 16.7 90 90 S 3 6 30.11 1020 10 16 0.00 0.00
3:59 am 03:59 Clear 66 18.9 64 17.8 93 93 W 3 6 30.12 1020 10 16 0.00 0.00
4:59 am 04:59 Clear 65 18.3 63 17.2 93 93 Calm 30.12 1020 10 16 0.00 0.00
5:59 am 05:59 Sunny 65 18.3 63 17.2 93 93 Calm 30.13 1020 8 13 0.00 0.00
6:59 am 06:59 Partly Cloudy 66 18.9 65 18.3 96 96 Calm 30.15 1021 10 16 0.00 0.00
7:59 am 07:59 Partly Cloudy 70 21.1 64 17.8 82 82 NW 3 6 30.16 1022 10 16 0.00 0.00
8:59 am 08:59 Partly Cloudy 72 22.2 63 17.2 73 73 N 6 9 30.19 1022 10 16 0.00 0.00
9:59 am 09:59 Partly Cloudy 77 25 60 15.6 56 56 N 5 7 30.19 1022 10 16 0.00 0.00
10:59 am 10:59 Partly Cloudy 78 25.6 60 15.6 54 54 E 3 6 30.18 1022 10 16 0.00 0.00
11:59 am 11:59 Partly Cloudy 79 26.1 64 17.8 60 60 ENE 6 9 30.18 1022 10 16 0.00 0.00
12:59 pm 12:59 Partly Cloudy 81 27.2 62 16.7 53 53 E 8 13 30.17 1022 10 16 0.00 0.00
1:59 pm 13:59 Partly Cloudy 84 28.9 62 16.7 48 48 ENE 9 15 30.16 1021 10 16 0.00 0.00
2:59 pm 14:59 Partly Cloudy 86 30 64 17.8 48 48 NE 12 19 30.16 1021 10 16 0.00 0.00
3:59 pm 15:59 Partly Cloudy 86 30 64 17.8 48 48 E 12 19 30.14 1021 10 16 0.00 0.00
4:59 pm 16:59 Mostly Sunny 82 27.8 63 17.2 53 53 ENE 9 15 30.14 1021 10 16 0.00 0.00
5:59 pm 17:59 Mostly Sunny 82 27.8 64 17.8 55 55 E 9 15 30.13 1020 10 16 0.00 0.00
6:59 pm 18:59 Mostly Sunny 82 27.8 64 17.8 55 55 ESE 8 13 30.14 1021 10 16 0.00 0.00
7:59 pm 19:59 Sunny 78 25.6 63 17.2 60 60 ESE 7 11 30.14 1021 10 16 0.00 0.00
8:59 pm 20:59 Clear 73 22.8 60 15.6 64 64 SE 5 7 30.15 1021 10 16 0.00 0.00
9:59 pm 21:59 Clear 71 21.7 62 16.7 73 73 SSE 8 13 30.16 1021 10 16 0.00 0.00
10:59 pm 22:59 Clear 70 21.1 65 18.3 84 84 SSE 6 9 30.16 1021 10 16 0.00 0.00
11:59 pm 23:59 Clear 70 21.1 65 18.3 84 84 S 7 11 30.17 1022 10 16 0.00 0.00

Powered by AerisWeather